Regional Weather Roundup
Issued by NWS

Home | Current Version | Previous Version | Text Only | Print | Product List | Glossary Off
Versions: 1 2 3 4 5 6 7 8 9 10 11 12 13 14 15 16 17 18 19 20 21 22 23 24 25 26 27

000
ASUS45 KSLC 290010
RWRUT

UTAH REGIONAL WEATHER ROUNDUP
NATIONAL WEATHER SERVICE SALT LAKE CITY UT
600 PM MDT THU APR 28 2016

UTZ001>011-023>025-290100-

NORTHERN UTAH

CITY           SKY/WX    TMP DP  RH WIND       PRES   REMARKS
BRIGHAM CITY   MOSUNNY   57  28  33 E24G35    29.78S
HILL AFB       MOSUNNY   50  34  54 E21G31    29.78F
LOGAN          MOSUNNY   55  31  39 E22G28    29.80R
OGDEN          PTSUNNY   53  30  41 E25G37    29.77R
PROVO AIRPORT  CLOUDY    54  36  50 NW23      29.73R
SALT LAKE CITY CLOUDY    55  34  45 E15       29.76R
VERNAL         CLOUDY    44  37  76 NE12      29.84S
WENDOVER       CLOUDY    55  36  47 CALM      29.79S
HEBER CITY     CLOUDY    43  32  65 N22       29.78R

$$

UTZ012>022-026-027-290100-

SOUTHERN/CENTRAL UTAH

CITY           SKY/WX    TMP DP  RH WIND       PRES   REMARKS
BLANDING       PTSUNNY   53  26  35 S17G25    29.84R
BRYCE CANYON   LGT SNOW  35  32  88 W7        29.78R FOG     WCI  29
CEDAR CITY     CLOUDY    44  38  79 SE7       29.74R
DELTA          CLOUDY    46  43  87 N16       29.77R
HANKSVILLE     CLOUDY    46  37  71 N8        29.76R
MILFORD        LGT RAIN  48  40  73 NE15      29.75R
MOAB/CYNLANDS  CLOUDY    52  39  61 SW9       29.76R
PRICE          PTSUNNY   46  38  73 W7        29.77R
ST GEORGE      CLOUDY    63  36  36 SW20      29.71S
KANAB          PTSUNNY   52  39  62 S12       29.77R

$$

REGIONAL REPORTS     COLORADO/ARIZONA

CITY           SKY/WX    TMP DP  RH WIND       PRES   REMARKS
CRAIG, CO      CLOUDY    39  34  82 E6        29.88R WCI  35
GRAND JUNCTION CLOUDY    53  38  56 N12       29.76F
RIFLE          CLOUDY    53  36  52 NW3       29.79R
MONTROSE       CLOUDY    52  35  52 NW8       29.78R
CORTEZ         RAIN      44  36  73 NE6       29.81R
PAGE, AZ       MOSUNNY   57  33  40 NW6       29.71S
GRAND CANYON   CLOUDY    40  36  86 S10       29.81R WCI  33
KINGMAN        PTSUNNY   51  46  83 SE3       29.78R
FLAGSTAFF      CLOUDY    42  27  55 W17G23    29.82R

$$

REGIONAL REPORTS    NEVADA/IDAHO/WYOMING

CITY           SKY/WX    TMP DP  RH WIND       PRES   REMARKS
LAS VEGAS, NV  CLOUDY    69  44  40 E13       29.66R
ELY            PTSUNNY   47  35  63 N21G32    29.82R
ELKO           CLOUDY    56  32  40 NE9       29.83S
POCATELLO, ID  CLOUDY    61  29  29 N17       29.80R
BURLEY         MOSUNNY   58  34  40 NW7       29.79S
EVANSTON, WY   CLOUDY    35  27  72 E20G26    29.88R WCI  24
ROCK SPRINGS   CLOUDY    34  29  82 NE22G29   29.91S WCI  22
KEMMERER         N/A     32  30  93 E17G26    29.92S WCI  21

$$




USA.gov is the U.S. government's official web portal to all federal, state and local government web resources and services.